[[{"header":{"parameterUnit":"m.s-1","parameterCategory":1,"la1":30.2991,"la2":30.254,"lo1":-89.0895,"lo2":-89.0444,"dy":0.0017,"dx":0.0017,"nx":28,"ny":28,"refTime":"2026-02-11T09:00:00:Z","depth":0,"parameterNumber":2,"parameterNumberName":"U-component_of_WINDS"},"data":[0,0,0,0,0,0,0,0,0,0,0,0,0,0,0,0,0,0,0,0,0,0,0,0,0,0,0,0,0,0,0,0,0,0,0,0,0,0,0,0,0,0,0,0,0,0,0,0,0,0,0,0,0,0,0,0,0,0,-1.8196,-1.8197,0,-1.8252,-1.8253,-1.8253,-1.8224,-1.8222,-1.8221,-1.8219,-1.8277,-1.828,-1.8282,0,0,0,0,0,0,0,0,0,0,0,0,0,-1.8065,-1.8067,-1.8196,-1.8197,-1.8198,-1.8252,-1.8253,-1.8254,-1.8224,-1.8222,-1.822,-1.8219,-1.8276,-1.8279,-1.8283,0,0,0,0,0,0,0,0,0,0,0,0,0,-1.8121,-1.8068,-1.8196,-1.819,-1.8189,-1.8252,-1.8253,-1.8254,-1.8224,-1.8222,-1.822,-1.8218,-1.8275,-1.8279,-1.8283,-1.8356,0,0,-1.8297,-1.8299,0,0,0,0,0,0,0,0,-1.8118,-1.8126,-1.819,-1.819,-1.819,-1.8229,-1.8227,-1.8288,-1.8225,-1.8211,-1.8219,-1.8217,-1.8263,-1.8268,-1.8283,-1.8358,-1.8361,-1.8297,-1.83,-1.8302,-1.8303,0,0,0,0,0,0,0,-1.8114,-1.8124,-1.8218,-1.8191,-1.8191,-1.8184,-1.8189,-1.8239,-1.8249,-1.8212,-1.821,-1.8217,-1.8262,-1.8279,-1.8284,-1.8362,-1.8297,-1.8301,-1.8304,-1.8305,-1.8499,-1.8502,0,0,0,0,0,0,-1.8111,-1.8121,-1.8217,-1.822,-1.8148,-1.8188,-1.8194,-1.8219,-1.8248,-1.8251,-1.8219,-1.8215,-1.8273,-1.8279,-1.8286,-1.8374,-1.8302,-1.8306,-1.8308,-1.8497,-1.85,-1.8502,0,0,0,0,0,0,-1.8108,-1.8119,-1.8214,-1.817,-1.8181,-1.8193,-1.822,-1.8221,-1.8238,-1.8253,-1.8255,-1.8234,-1.8271,-1.828,-1.8339,-1.8375,-1.8308,-1.8312,-1.8494,-1.8498,-1.8501,-1.8548,0,0,0,0,0,0,-1.8104,-1.8119,-1.8146,-1.8171,-1.8184,-1.8266,-1.8223,-1.8224,-1.8245,-1.8241,-1.8268,-1.8271,-1.827,-1.8332,-1.8343,-1.838,-1.8315,-1.8491,-1.8495,-1.85,-1.8544,-1.8553,-1.8562,0,0,0,0,0,-1.81,-1.8157,-1.8148,-1.816,-1.8219,-1.8268,-1.8276,-1.8274,-1.8248,-1.8276,-1.8286,-1.827,-1.8369,-1.8339,-1.835,-1.8389,-1.8488,-1.8494,-1.85,-1.854,-1.8551,-1.8561,0,0,0,0,0,0,-1.8137,-1.8161,-1.815,-1.8218,-1.8241,-1.8263,-1.8298,-1.8286,-1.8318,-1.8313,-1.8309,-1.8316,-1.8377,-1.8388,-1.8354,-1.8461,-1.8425,-1.8433,-1.8451,-1.8463,-1.8471,-1.8468,-1.8319,0,0,0,0,0,-1.8153,-1.8192,-1.821,-1.8268,-1.828,-1.8287,-1.8309,-1.8305,-1.8329,-1.8339,-1.8354,-1.8378,-1.8415,-1.8439,-1.8474,-1.8545,-1.855,-1.8577,-1.8586,-1.8593,-1.8601,-1.864,-1.8652,-1.8521,-1.8521,-1.8521,0,0,-1.8187,-1.8205,-1.8229,-1.8276,-1.8293,-1.8333,-1.8296,-1.8339,-1.8369,-1.8346,-1.8402,-1.8414,-1.8441,-1.8506,-1.8535,-1.8518,-1.8638,-1.8601,-1.8606,-1.861,-1.8647,-1.866,-1.8671,-1.8525,-1.8524,-1.8524,0,0,-1.827,-1.8286,-1.8336,-1.8355,-1.8382,-1.8387,-1.8399,-1.8423,-1.8429,-1.8486,-1.8469,-1.8504,-1.8567,-1.8587,-1.8606,-1.8695,-1.8681,-1.8706,-1.8754,-1.8792,-1.8802,-1.8811,-1.8844,-1.8856,-1.8714,-1.8714,-1.8714,0,-1.8308,-1.8368,-1.8364,-1.8409,-1.843,-1.841,-1.8461,-1.848,-1.8517,-1.8532,-1.8512,-1.8591,-1.8607,-1.8677,-1.8699,-1.8714,-1.8728,-1.8704,-1.8801,-1.881,-1.8819,-1.885,-1.8862,-1.8717,-1.8716,-1.8716,-1.8716,0,-1.8414,-1.8456,-1.8493,-1.853,-1.8555,-1.8603,-1.8606,-1.8632,-1.8626,-1.8633,-1.869,-1.8709,-1.8748,-1.8764,-1.8758,-1.8833,-1.8821,-1.8801,-1.8765,-1.8834,-1.8863,-1.8875,-1.8721,-1.872,-1.8719,-1.8718,0,0,-1.8523,-1.8556,-1.857,-1.8587,-1.8615,-1.8647,-1.8694,-1.8732,-1.8754,-1.878,-1.882,-1.8874,-1.8855,-1.8876,-1.8872,-1.8906,-1.8976,-1.8881,-1.8882,-1.8899,-1.906,-1.9076,-1.909,-1.8966,-1.8968,-1.897,-1.9058,0,-1.8608,-1.869,-1.8688,-1.8764,-1.8803,-1.8784,-1.8825,-1.8847,-1.8854,-1.8888,-1.8896,-1.8934,-1.8906,-1.8919,-1.8951,-1.8961,-1.9008,-1.8954,-1.9004,-1.9005,-1.8999,-1.9105,-1.9122,-1.9204,-1.9069,-1.9071,-1.9073,0,-1.8718,-1.8748,-1.8829,-1.8852,-1.8868,-1.8905,-1.8939,-1.8971,-1.8995,-1.8998,-1.9021,-1.9013,-1.906,-1.9022,-1.9087,-1.9051,-1.907,-1.9078,-1.9081,-1.9087,-1.9044,-1.9114,-1.923,-1.9243,-1.909,-1.9089,-1.9088,0,-1.8791,-1.8851,-1.8907,-1.8921,-1.8949,-1.8976,-1.8989,-1.9011,-1.9034,-1.9063,-1.9078,-1.9112,-1.9132,-1.9159,-1.916,-1.9131,-1.9226,-1.9188,-1.923,-1.9231,-1.9252,-1.9251,-1.9374,-1.9263,-1.9263,-1.9263,-1.9263,0,-1.8886,-1.8937,-1.894,-1.8975,-1.903,-1.9027,-1.9082,-1.9092,-1.9112,-1.9148,-1.9134,-1.9168,-1.9167,-1.9202,-1.9202,-1.9257,-1.9266,-1.927,-1.9269,-1.9272,-1.9271,-1.9285,-1.928,-1.9266,-1.9266,-1.9265,-1.9264,0,-1.8977,-1.8981,-1.9041,-1.9063,-1.9069,-1.9109,-1.9128,-1.9161,-1.9166,-1.9212,-1.9223,-1.9232,-1.9272,-1.9275,-1.9322,-1.9322,-1.9389,-1.9382,-1.9381,-1.938,-1.9423,-1.9419,-1.956,-1.9578,-1.9455,-1.9456,-1.9457,0,-1.9039,-1.9077,-1.9102,-1.9126,-1.914,-1.9178,-1.9201,-1.9198,-1.9223,-1.9253,-1.9283,-1.9322,-1.9353,-1.9418,-1.9429,-1.9464,-1.9458,-1.9505,-1.9464,-1.9465,-1.946,-1.9458,-1.9462,-1.9514,-1.9515,-1.9516,-1.9517,0,-1.9148,-1.9148,-1.9181,-1.9216,-1.9244,-1.9271,-1.9296,-1.9316,-1.9316,-1.9345,-1.9386,-1.941,-1.9457,-1.9496,-1.9531,-1.9544,-1.9531,-1.953,-1.9542,-1.9545,-1.9543,-1.9546,-1.9404,-1.9527,-1.9526,-1.9525,-1.9525,-1.9524,-1.9226,-1.9259,-1.9283,-1.9321,-1.9339,-1.9363,-1.9395,-1.9405,-1.9439,-1.9477,-1.9474,-1.9519,-1.9542,-1.9588,-1.9603,-1.9639,-1.9623,-1.964,-1.9645,-1.9649,-1.9654,-1.9537,-1.9645,-1.9645,-1.9645,-1.9644,-1.9644,0,-1.9335,-1.9349,-1.9384,-1.942,-1.9449,-1.9434,-1.9461,-1.9487,-1.9528,-1.955,-1.9581,-1.9628,-1.9666,-1.9679,-1.9715,-1.9741,-1.9736,-1.9751,-1.975,-1.9753,-1.9666,-1.9652,-1.9755,-1.9755,-1.9755,-1.9755,-1.9754,-1.9754,-1.9395,-1.9451,-1.9454,-1.9518,-1.9532,-1.9576,-1.9593,-1.9615,-1.9633,-1.9687,-1.9718,-1.9726,-1.9745,-1.9783,-1.9816,-1.9819,-1.9834,-1.9851,-1.9852,-1.977,-1.9759,-1.9749,-1.9736,-1.9854,-1.9854,-1.9936,-1.9937,-1.9937]},{"header":{"parameterUnit":"m.s-1","parameterCategory":1,"la1":30.2991,"la2":30.254,"lo1":-89.0895,"lo2":-89.0444,"dy":0.0017,"dx":0.0017,"nx":28,"ny":28,"refTime":"2026-02-11T09:00:00:Z","depth":0,"parameterNumber":3,"parameterNumberName":"V-component_of_WINDS"},"data":[0,0,0,0,0,0,0,0,0,0,0,0,0,0,0,0,0,0,0,0,0,0,0,0,0,0,0,0,0,0,0,0,0,0,0,0,0,0,0,0,0,0,0,0,0,0,0,0,0,0,0,0,0,0,0,0,0,0,-3.9082,-3.9083,0,-3.9172,-3.9173,-3.9174,-3.9171,-3.917,-3.9168,-3.9167,-3.9253,-3.9256,-3.926,0,0,0,0,0,0,0,0,0,0,0,0,0,-3.8904,-3.8907,-3.9082,-3.9083,-3.9084,-3.9172,-3.9173,-3.9174,-3.9171,-3.9169,-3.9168,-3.9167,-3.9252,-3.9256,-3.926,0,0,0,0,0,0,0,0,0,0,0,0,0,-3.8986,-3.8908,-3.9082,-3.9093,-3.9095,-3.9171,-3.9173,-3.9174,-3.9171,-3.9169,-3.9168,-3.9166,-3.9251,-3.9256,-3.9261,-3.9329,0,0,-3.9276,-3.9279,0,0,0,0,0,0,0,0,-3.8981,-3.8992,-3.9091,-3.9093,-3.9095,-3.9158,-3.9141,-3.9226,-3.9172,-3.9142,-3.9167,-3.9165,-3.9223,-3.923,-3.9251,-3.9333,-3.9337,-3.9277,-3.928,-3.9282,-3.9284,0,0,0,0,0,0,0,-3.8975,-3.8988,-3.9117,-3.9092,-3.9095,-3.9093,-3.9102,-3.9157,-3.9191,-3.9145,-3.9145,-3.9156,-3.9223,-3.9246,-3.9253,-3.9338,-3.9277,-3.9281,-3.9284,-3.9286,-3.9483,-3.9485,0,0,0,0,0,0,-3.8968,-3.8984,-3.9114,-3.912,-3.9033,-3.9097,-3.9108,-3.914,-3.9191,-3.9197,-3.9157,-3.9155,-3.9238,-3.9247,-3.9256,-3.934,-3.9282,-3.9287,-3.929,-3.948,-3.9483,-3.9485,0,0,0,0,0,0,-3.8964,-3.898,-3.9111,-3.9052,-3.9069,-3.9102,-3.9138,-3.9142,-3.9165,-3.92,-3.9206,-3.9174,-3.9237,-3.9248,-3.9312,-3.9343,-3.9289,-3.9294,-3.9478,-3.9481,-3.9484,-3.9509,0,0,0,0,0,0,-3.8959,-3.8978,-3.9006,-3.9053,-3.9072,-3.9167,-3.914,-3.9146,-3.9174,-3.9173,-3.9218,-3.9223,-3.9236,-3.9304,-3.9317,-3.9349,-3.9298,-3.9475,-3.9479,-3.9483,-3.9506,-3.9513,-3.9519,0,0,0,0,0,-3.8953,-3.9007,-3.9007,-3.9023,-3.9107,-3.9169,-3.9179,-3.9195,-3.9177,-3.9204,-3.9227,-3.9222,-3.9338,-3.931,-3.9325,-3.9359,-3.9473,-3.9478,-3.9483,-3.9503,-3.9511,-3.9519,0,0,0,0,0,0,-3.896,-3.9014,-3.9014,-3.9086,-3.9123,-3.9168,-3.9203,-3.9203,-3.9245,-3.9241,-3.9257,-3.9267,-3.933,-3.9351,-3.932,-3.9429,-3.9403,-3.9411,-3.9413,-3.9422,-3.9428,-3.9422,-3.9302,0,0,0,0,0,-3.8971,-3.9018,-3.9062,-3.9121,-3.914,-3.9168,-3.9195,-3.9205,-3.9243,-3.9258,-3.9286,-3.9321,-3.9366,-3.9395,-3.9438,-3.9509,-3.9518,-3.9539,-3.9546,-3.9551,-3.9558,-3.9598,-3.9608,-3.9501,-3.9501,-3.9501,0,0,-3.8992,-3.9027,-3.9056,-3.9123,-3.9153,-3.9201,-3.9181,-3.9232,-3.9267,-3.9265,-3.9327,-3.9349,-3.939,-3.9458,-3.9489,-3.9477,-3.959,-3.9557,-3.9561,-3.9565,-3.9604,-3.9614,-3.9622,-3.9504,-3.9504,-3.9503,0,0,-3.9055,-3.9087,-3.914,-3.9172,-3.9218,-3.9237,-3.925,-3.9296,-3.9311,-3.9374,-3.9374,-3.9415,-3.9492,-3.9521,-3.9546,-3.9624,-3.962,-3.9637,-3.9671,-3.971,-3.9718,-3.9726,-3.9753,-3.9763,-3.9643,-3.9643,-3.9643,0,-3.9075,-3.9149,-3.9167,-3.9219,-3.9249,-3.9252,-3.9306,-3.9335,-3.9392,-3.9412,-3.9398,-3.9496,-3.9523,-3.9598,-3.9618,-3.9638,-3.9652,-3.9631,-3.9716,-3.9724,-3.9731,-3.9757,-3.9768,-3.9645,-3.9645,-3.9645,-3.9645,0,-3.9171,-3.9222,-3.926,-3.9318,-3.9352,-3.9404,-3.943,-3.9462,-3.9468,-3.9488,-3.9553,-3.9587,-3.9637,-3.9656,-3.9661,-3.9732,-3.9724,-3.9713,-3.9687,-3.9742,-3.9768,-3.9778,-3.9648,-3.9647,-3.9646,-3.9646,0,0,-3.924,-3.931,-3.9324,-3.9351,-3.9404,-3.9443,-3.9495,-3.9547,-3.9574,-3.9614,-3.9658,-3.9724,-3.9715,-3.9744,-3.9753,-3.9787,-3.9847,-3.9772,-3.9773,-3.9785,-3.9927,-3.9935,-3.9947,-3.9845,-3.9847,-3.9849,-3.9924,0,-3.9309,-3.9405,-3.9424,-3.9507,-3.9554,-3.9559,-3.9605,-3.9642,-3.9662,-3.9704,-3.9726,-3.9773,-3.9757,-3.9775,-3.9809,-3.9832,-3.9875,-3.9827,-3.9885,-3.9887,-3.9875,-3.996,-3.9968,-4.0037,-3.9934,-3.9935,-3.9937,0,-3.9402,-3.9447,-3.9536,-3.9584,-3.9605,-3.9646,-3.9696,-3.9736,-3.9778,-3.979,-3.9824,-3.983,-3.9884,-3.9856,-3.9931,-3.9897,-3.9922,-3.9938,-3.9941,-3.9946,-3.9915,-3.9968,-4.0059,-4.007,-3.9952,-3.9951,-3.995,0,-3.9444,-3.9527,-3.9591,-3.9614,-3.9672,-3.9701,-3.9726,-3.9766,-3.9796,-3.9839,-3.9859,-3.9907,-3.9933,-3.9969,-3.9988,-3.9966,-4.0061,-4.0035,-4.0072,-4.0071,-4.0091,-4.0089,-4.0188,-4.0107,-4.0107,-4.0107,-4.0107,0,-3.9519,-3.9572,-3.9611,-3.965,-3.9711,-3.9732,-3.979,-3.9815,-3.9851,-3.9894,-3.99,-3.994,-3.9962,-4.0005,-4.002,-4.0079,-4.0091,-4.0101,-4.0105,-4.0101,-4.01,-4.0117,-4.0113,-4.011,-4.0109,-4.0109,-4.0108,0,-3.9575,-3.9603,-3.9673,-3.9724,-3.9738,-3.978,-3.9822,-3.986,-3.9881,-3.9936,-3.995,-3.9983,-4.0034,-4.0056,-4.0118,-4.0128,-4.0196,-4.0196,-4.0183,-4.0184,-4.022,-4.0216,-4.0333,-4.035,-4.0258,-4.0259,-4.026,0,-3.9621,-3.9663,-3.9719,-3.975,-3.9777,-3.9826,-3.9858,-3.988,-3.9913,-3.9965,-3.9996,-4.0049,-4.0091,-4.0172,-4.0201,-4.0248,-4.0249,-4.0287,-4.0256,-4.0252,-4.025,-4.0247,-4.0251,-4.0292,-4.0293,-4.0294,-4.0294,0,-3.97,-3.9712,-3.976,-3.9813,-3.9852,-3.9893,-3.9934,-3.9959,-3.9987,-4.0024,-4.0078,-4.0111,-4.0177,-4.0228,-4.0278,-4.0301,-4.0303,-4.0304,-4.0315,-4.0312,-4.0303,-4.0308,-4.0198,-4.0301,-4.03,-4.03,-4.0299,-4.0299,-3.9752,-3.9791,-3.9837,-3.989,-3.9924,-3.9963,-4.0001,-4.0029,-4.0075,-4.0132,-4.0142,-4.0199,-4.024,-4.0308,-4.0334,-4.0378,-4.0369,-4.0385,-4.0389,-4.0392,-4.0395,-4.0296,-4.0387,-4.0387,-4.0387,-4.0387,-4.0387,0,-3.9831,-3.9862,-3.9911,-3.997,-4.0012,-4.0012,-4.0058,-4.0092,-4.0143,-4.0183,-4.0226,-4.0288,-4.0339,-4.0372,-4.0423,-4.0452,-4.0453,-4.0464,-4.0462,-4.0467,-4.04,-4.0386,-4.0462,-4.0462,-4.0462,-4.0462,-4.0462,-4.0462,-3.9878,-3.9943,-3.9961,-4.0043,-4.0073,-4.0132,-4.0158,-4.0193,-4.0226,-4.0296,-4.0339,-4.0361,-4.0398,-4.0452,-4.0498,-4.0506,-4.0524,-4.0536,-4.0543,-4.048,-4.0472,-4.0465,-4.0451,-4.054,-4.054,-4.0607,-4.0608,-4.0608]}]]